Simultaneous Nadir Overpasses (SNOs) Predictions

Prediction of SNOs between METOP-B and NPP Satellite Orbit:

Table of predicted SNOs for the next 14.0 days since TLE Epoch: 6/1/2014
Index Date (METOP-B) Time (METOP-B) Lat,Lon (METOP-B) SZA (METOP-B ) Date (NPP) Time (NPP) Lat,Lon (NPP) SZA (NPP ) Distance(km) Time Diff (sec)
1 06/04/2014 18:12:32 -73.63, 80.93 128.86 06/04/2014 18:11:24 -73.63, 78.32 128.74 81.54 68
2 06/04/2014 19:03:16 73.45,-112.16 50.98 06/04/2014 19:02:06 73.42,-113.89 51.03 55.07 70
3 06/04/2014 19:54:00 -73.31, 54.86 129.16 06/04/2014 19:52:48 -73.33, 53.64 129.08 39.04 72
4 06/04/2014 20:44:44 73.12,-138.22 50.67 06/04/2014 20:43:30 73.12,-138.59 50.70 12.23 74
5 06/04/2014 21:35:27 -73.03, 28.92 129.42 06/04/2014 21:34:12 -73.03, 28.92 129.41 0.62 75
6 06/04/2014 22:26:08 73.00,-163.82 50.55 06/04/2014 22:24:58 73.02,-163.75 50.58 3.23 70
7 06/04/2014 23:16:49 -73.01, 3.53 129.45 06/04/2014 23:15:42 -73.03, 3.55 129.42 2.00 67
8 06/05/2014 00:07:29 73.03, 170.90 50.57 06/05/2014 00:06:28 73.02, 170.87 50.57 1.14 61
9 06/05/2014 00:58:10 -73.04, -21.75 129.43 06/05/2014 00:57:12 -73.03, -21.83 129.42 2.84 58
10 06/05/2014 01:48:51 73.01, 145.51 50.54 06/05/2014 01:47:58 73.02, 145.50 50.57 1.85 53
11 06/05/2014 02:39:32 -73.02, -47.13 129.46 06/05/2014 02:38:42 -73.03, -47.20 129.43 2.64 50
12 06/05/2014 03:30:13 72.98, 120.12 50.51 06/05/2014 03:29:27 72.97, 120.23 50.51 3.68 46
13 06/05/2014 04:20:54 -73.00, -72.52 129.48 06/05/2014 04:20:11 -72.98, -72.47 129.49 2.33 43
14 06/05/2014 05:11:34 73.01, 94.84 50.53 06/05/2014 05:10:58 73.02, 94.75 50.55 3.45 36
15 06/05/2014 06:02:15 -72.97, -97.91 129.51 06/05/2014 06:01:40 -72.98, -97.85 129.50 2.27 35
16 06/05/2014 06:52:55 72.99, 69.46 50.50 06/05/2014 06:52:26 72.97, 69.48 50.49 1.87 29
17 06/05/2014 07:43:36 -73.00,-123.19 129.49 06/05/2014 07:43:10 -72.98,-123.22 129.51 2.36 26
18 06/05/2014 08:34:17 72.97, 44.07 50.47 06/05/2014 08:33:56 72.98, 44.10 50.49 1.40 21
19 06/05/2014 09:24:58 -72.98,-148.58 129.52 06/05/2014 09:24:40 -72.98,-148.60 129.51 0.78 18
20 06/05/2014 10:15:38 73.00, 18.79 50.49 06/05/2014 10:15:26 72.98, 18.73 50.48 2.99 12
21 06/05/2014 11:06:20 -72.96,-173.96 129.55 06/05/2014 11:06:10 -72.98,-173.97 129.52 2.99 10
22 06/05/2014 11:57:00 72.97, -6.60 50.47 06/05/2014 11:56:56 72.98, -6.65 50.47 1.68 4
23 06/05/2014 12:47:41 -72.99, 160.76 129.53 06/05/2014 12:47:40 -72.98, 160.65 129.53 3.39 1
24 06/05/2014 13:38:22 72.95, -31.99 50.44 06/05/2014 13:38:26 72.98, -32.02 50.46 3.21 4
25 06/05/2014 14:29:03 -72.96, 135.37 129.56 06/05/2014 14:29:09 -72.93, 135.38 129.59 3.15 6
26 06/05/2014 15:19:44 72.93, -57.37 50.41 06/05/2014 15:19:55 72.93, -57.29 50.40 2.65 11
27 06/05/2014 16:10:25 -72.94, 109.98 129.59 06/05/2014 16:10:39 -72.94, 110.01 129.60 1.05 14
28 06/05/2014 17:01:05 72.96, -82.65 50.43 06/05/2014 17:01:25 72.93, -82.67 50.40 3.17 20
29 06/05/2014 17:51:47 -72.92, 84.59 129.61 06/05/2014 17:52:09 -72.94, 84.63 129.60 2.37 22
30 06/05/2014 18:42:27 72.93,-108.04 50.40 06/05/2014 18:42:55 72.93,-108.04 50.39 0.56 28
31 06/05/2014 19:33:08 -72.95, 59.31 129.60 06/05/2014 19:33:39 -72.94, 59.26 129.61 2.13 31
32 06/05/2014 20:23:49 72.91,-133.43 50.37 06/05/2014 20:24:25 72.93,-133.42 50.38 2.05 36
33 06/05/2014 21:14:30 -72.92, 33.93 129.62 06/05/2014 21:15:09 -72.94, 33.88 129.62 2.10 39
34 06/05/2014 22:05:10 72.94,-158.71 50.39 06/05/2014 22:05:55 72.93,-158.79 50.38 3.02 45
35 06/05/2014 22:55:52 -72.90, 8.54 129.65 06/05/2014 22:56:38 -72.89, 8.61 129.68 2.86 46
36 06/05/2014 23:46:32 72.92, 175.91 50.36 06/05/2014 23:47:25 72.93, 175.83 50.37 2.92 53
37 06/06/2014 00:37:14 -72.88, -16.85 129.68 06/06/2014 00:38:08 -72.89, -16.76 129.68 2.97 54
38 06/06/2014 01:27:54 72.89, 150.52 50.34 06/06/2014 01:28:54 72.88, 150.56 50.31 2.05 60
39 06/06/2014 02:18:35 -72.91, -42.13 129.66 06/06/2014 02:19:38 -72.89, -42.14 129.69 2.06 63
40 06/06/2014 03:09:16 72.87, 125.13 50.31 06/06/2014 03:10:24 72.88, 125.19 50.30 2.11 68
41 06/06/2014 03:59:57 -72.88, -67.51 129.69 06/06/2014 04:01:08 -72.89, -67.51 129.70 0.53 71
42 06/06/2014 04:50:40 72.75, 99.53 50.19 06/06/2014 04:51:53 72.83, 99.92 50.24 15.75 73
43 06/06/2014 05:41:23 -72.66, -93.32 129.90 06/06/2014 05:42:35 -72.74, -92.57 129.87 26.35 72
44 06/06/2014 06:32:07 72.47, 73.63 49.93 06/06/2014 06:33:17 72.53, 75.17 49.91 52.01 70
45 06/06/2014 07:22:50 -72.38,-119.22 130.15 06/06/2014 07:23:59 -72.44,-117.32 130.20 63.90 69
46 06/06/2014 08:13:35 72.14, 47.64 49.63 06/06/2014 08:14:40 72.17, 50.51 49.52 97.66 65




NCC Satellite Simultaneous Nadir Overpasses (SNOs) Prediction Service
